Voltar ao catálogo

GONETS M 22

AtivoComunicaçõesPO
NORAD 47229·PAYLOAD·🇷🇺 Russia

Lançado Dec 3, 2020 de Plesetsk Cosmodrome

Loading…

Próximas Passagens (próximas 24 horas)

TLE

AtualizadoSource: Space-Track

Época: Sep 14, 2026, 15:01 UTC

1 47229U 20091C   26257.62621630 -.00000003  00000-0 -90909-4 0  9990
2 47229  82.4969 246.4219 0021485 344.5205  15.5215 12.42894601262135

Acompanhe GONETS M 22 em tempo real com AllMySat

Download on the App Store